When you browse on this site, cookies collect data to enhance your experience and personalize the content and advertising you see.
Visit our Privacy Policy to learn more. By continuing to use the site, you agree to this use of cookies and data.
  • In Czech Republic
  • List of Countries
  • For 7 days
  • Water Temperature
  • Weather Map
  • Weather Widgets
  • user-avatar
    Login

    Hourly Weather Klagenfurt

    Today, 4 April, Saturday

    Time Temperature Precipitation Wind Pressure Humidity
    00:00 +5°C° 0.2 mm 1 mps 690 mmHg 86%
    01:00 +4°C° 0 mm 1 mps 690 mmHg 86%
    02:00 +4°C° 0.1 mm 1 mps 690 mmHg 88%
    03:00 +4°C° 0.1 mm 1 mps 691 mmHg 90%
    04:00 +2°C° 0.1 mm 0 mps 691 mmHg 91%
    05:00 +3°C° 0 mm 0 mps 691 mmHg 90%
    06:00 +4°C° 0 mm 1 mps 692 mmHg 89%
    07:00 +5°C° 0 mm 1 mps 692 mmHg 88%
    08:00 +6°C° 0 mm 1 mps 693 mmHg 80%
    09:00 +8°C° 0 mm 1 mps 693 mmHg 73%
    10:00 +10°C° 0 mm 1 mps 693 mmHg 65%
    11:00 +11°C° 0 mm 1 mps 693 mmHg 60%
    12:00 +11°C° 0 mm 1 mps 693 mmHg 55%
    13:00 +12°C° 0 mm 1 mps 693 mmHg 50%
    14:00 +12°C° 0 mm 2 mps 693 mmHg 51%
    15:00 +12°C° 0 mm 2 mps 693 mmHg 51%
    16:00 +12°C° 0 mm 2 mps 693 mmHg 51%
    17:00 +10°C° 0 mm 1 mps 693 mmHg 59%
    18:00 +8°C° 0 mm 1 mps 693 mmHg 67%
    19:00 +6°C° 0 mm 1 mps 693 mmHg 74%
    20:00 +5°C° 0 mm 1 mps 693 mmHg 76%
    21:00 +5°C° 0 mm 1 mps 694 mmHg 77%
    22:00 +4°C° 0 mm 1 mps 694 mmHg 79%
    23:00 +4°C° 0 mm 1 mps 695 mmHg 80%

    Tomorrow, 5 April, Sunday

    Time Temperature Precipitation Wind Pressure Humidity
    00:00 +3°C° 0 mm 1 mps 695 mmHg 82%
    01:00 +3°C° 0 mm 1 mps 695 mmHg 83%
    02:00 +2°C° 0 mm 1 mps 695 mmHg 85%
    03:00 +2°C° 0 mm 1 mps 695 mmHg 86%
    04:00 +2°C° 0 mm 1 mps 695 mmHg 88%
    05:00 +3°C° 0 mm 1 mps 695 mmHg 85%
    06:00 +3°C° 0 mm 1 mps 695 mmHg 82%
    07:00 +4°C° 0 mm 1 mps 695 mmHg 79%
    08:00 +6°C° 0 mm 1 mps 696 mmHg 69%
    09:00 +8°C° 0 mm 1 mps 696 mmHg 59%
    10:00 +10°C° 0 mm 2 mps 697 mmHg 48%
    11:00 +12°C° 0 mm 2 mps 696 mmHg 45%
    12:00 +13°C° 0 mm 2 mps 696 mmHg 42%
    13:00 +13°C° 0 mm 2 mps 696 mmHg 39%
    14:00 +13°C° 0 mm 2 mps 696 mmHg 40%
    15:00 +13°C° 0 mm 2 mps 695 mmHg 41%
    16:00 +13°C° 0 mm 2 mps 695 mmHg 43%
    17:00 +9°C° 0 mm 2 mps 695 mmHg 52%
    18:00 +8°C° 0 mm 1 mps 695 mmHg 62%
    19:00 +6°C° 0 mm 1 mps 695 mmHg 71%
    20:00 +6°C° 0 mm 1 mps 695 mmHg 73%
    21:00 +5°C° 0 mm 1 mps 695 mmHg 76%
    22:00 +4°C° 0 mm 1 mps 696 mmHg 78%
    23:00 +4°C° 0 mm 1 mps 696 mmHg 79%

    Day after tomorrow, 6 April, Monday

    Time Temperature Precipitation Wind Pressure Humidity
    00:00 +4°C° 0 mm 1 mps 696 mmHg 80%
    01:00 +4°C° 0 mm 1 mps 696 mmHg 82%
    02:00 +4°C° 0 mm 1 mps 695 mmHg 83%
    03:00 +3°C° 0 mm 1 mps 695 mmHg 84%
    04:00 +3°C° 0 mm 1 mps 695 mmHg 85%
    05:00 +4°C° 0 mm 1 mps 696 mmHg 82%
    06:00 +5°C° 0 mm 1 mps 696 mmHg 79%
    07:00 +6°C° 0 mm 1 mps 696 mmHg 76%
    08:00 +8°C° 0 mm 1 mps 696 mmHg 68%
    09:00 +9°C° 0 mm 2 mps 697 mmHg 60%
    10:00 +10°C° 0 mm 2 mps 697 mmHg 51%
    11:00 +12°C° 0 mm 2 mps 697 mmHg 49%
    12:00 +13°C° 0 mm 2 mps 697 mmHg 46%
    13:00 +14°C° 0 mm 2 mps 697 mmHg 43%
    14:00 +14°C° 0 mm 2 mps 697 mmHg 43%
    15:00 +14°C° 0 mm 2 mps 697 mmHg 43%
    16:00 +14°C° 0 mm 2 mps 697 mmHg 44%
    17:00 +10°C° 0 mm 2 mps 696 mmHg 51%
    18:00 +9°C° 0 mm 1 mps 696 mmHg 58%
    19:00 +7°C° 0 mm 1 mps 696 mmHg 66%
    20:00 +6°C° 0 mm 1 mps 697 mmHg 68%
    21:00 +5°C° 0 mm 1 mps 697 mmHg 69%
    22:00 +4°C° 0 mm 1 mps 697 mmHg 71%
    23:00 +4°C° 0 mm 1 mps 697 mmHg 73%

    7 April, Tuesday

    Time Temperature Precipitation Wind Pressure Humidity
    00:00 +3°C° 0 mm 1 mps 697 mmHg 75%
    01:00 +3°C° 0 mm 1 mps 697 mmHg 77%
    02:00 +2°C° 0 mm 1 mps 697 mmHg 78%
    03:00 +2°C° 0 mm 1 mps 697 mmHg 79%
    04:00 +1°C° 0 mm 1 mps 697 mmHg 80%
    05:00 +2°C° 0 mm 1 mps 697 mmHg 76%
    06:00 +3°C° 0 mm 1 mps 697 mmHg 72%
    07:00 +4°C° 0 mm 1 mps 698 mmHg 68%
    08:00 +6°C° 0 mm 1 mps 698 mmHg 59%
    09:00 +9°C° 0 mm 1 mps 699 mmHg 49%
    10:00 +10°C° 0 mm 2 mps 699 mmHg 40%
    11:00 +12°C° 0 mm 2 mps 699 mmHg 37%
    12:00 +14°C° 0 mm 2 mps 699 mmHg 34%
    13:00 +15°C° 0 mm 2 mps 699 mmHg 30%
    14:00 +14°C° 0 mm 2 mps 699 mmHg 31%
    15:00 +14°C° 0 mm 2 mps 699 mmHg 32%
    16:00 +14°C° 0 mm 2 mps 698 mmHg 33%
    17:00 +10°C° 0 mm 2 mps 698 mmHg 41%
    18:00 +9°C° 0 mm 1 mps 698 mmHg 49%
    19:00 +6°C° 0 mm 1 mps 698 mmHg 57%
    20:00 +6°C° 0 mm 1 mps 698 mmHg 58%
    21:00 +5°C° 0 mm 1 mps 698 mmHg 60%
    22:00 +4°C° 0 mm 1 mps 698 mmHg 62%
    23:00 +4°C° 0 mm 1 mps 698 mmHg 64%

    8 April, Wednesday

    Time Temperature Precipitation Wind Pressure Humidity
    00:00 +3°C° 0 mm 1 mps 698 mmHg 65%
    01:00 +3°C° 0 mm 1 mps 698 mmHg 67%
    02:00 +3°C° 0 mm 1 mps 698 mmHg 67%
    03:00 +2°C° 0 mm 1 mps 697 mmHg 68%
    04:00 +2°C° 0 mm 1 mps 697 mmHg 68%
    05:00 +3°C° 0 mm 1 mps 697 mmHg 64%
    06:00 +4°C° 0 mm 1 mps 698 mmHg 60%
    07:00 +5°C° 0 mm 1 mps 698 mmHg 57%
    08:00 +8°C° 0 mm 1 mps 698 mmHg 51%
    09:00 +10°C° 0 mm 1 mps 698 mmHg 44%
    10:00 +12°C° 0 mm 2 mps 698 mmHg 38%
    11:00 +13°C° 0 mm 2 mps 698 mmHg 36%
    12:00 +14°C° 0 mm 2 mps 698 mmHg 35%
    13:00 +15°C° 0 mm 2 mps 697 mmHg 33%
    14:00 +15°C° 0 mm 2 mps 697 mmHg 34%
    15:00 +15°C° 0 mm 2 mps 697 mmHg 36%
    16:00 +14°C° 0 mm 2 mps 696 mmHg 37%
    17:00 +12°C° 0 mm 1 mps 696 mmHg 46%
    18:00 +10°C° 0 mm 1 mps 696 mmHg 55%
    19:00 +7°C° 0 mm 1 mps 695 mmHg 63%
    20:00 +7°C° 0 mm 1 mps 696 mmHg 65%
    21:00 +6°C° 0 mm 1 mps 696 mmHg 67%
    22:00 +5°C° 0 mm 1 mps 696 mmHg 70%
    23:00 +5°C° 0 mm 1 mps 696 mmHg 71%

    9 April, Thursday

    Time Temperature Precipitation Wind Pressure Humidity
    00:00 +5°C° 0 mm 1 mps 696 mmHg 73%
    01:00 +4°C° 0 mm 1 mps 696 mmHg 74%
    02:00 +4°C° 0 mm 1 mps 695 mmHg 76%
    03:00 +4°C° 0 mm 1 mps 695 mmHg 77%
    04:00 +3°C° 0 mm 1 mps 695 mmHg 79%
    05:00 +4°C° 0 mm 1 mps 695 mmHg 75%
    06:00 +5°C° 0 mm 1 mps 695 mmHg 71%
    07:00 +6°C° 0 mm 1 mps 696 mmHg 68%
    08:00 +9°C° 0 mm 1 mps 696 mmHg 59%
    09:00 +11°C° 0 mm 1 mps 696 mmHg 50%
    10:00 +14°C° 0 mm 1 mps 696 mmHg 41%
    11:00 +15°C° 0 mm 1 mps 696 mmHg 38%
    12:00 +16°C° 0 mm 1 mps 696 mmHg 35%
    13:00 +17°C° 0 mm 2 mps 696 mmHg 33%
    14:00 +18°C° 0 mm 1 mps 696 mmHg 33%
    15:00 +18°C° 0 mm 1 mps 696 mmHg 34%
    16:00 +18°C° 0 mm 1 mps 695 mmHg 35%
    17:00 +14°C° 0 mm 1 mps 695 mmHg 43%
    18:00 +12°C° 0 mm 1 mps 694 mmHg 52%
    19:00 +9°C° 0 mm 1 mps 694 mmHg 60%
    20:00 +9°C° 0 mm 1 mps 694 mmHg 62%
    21:00 +8°C° 0 mm 1 mps 695 mmHg 63%
    22:00 +7°C° 0 mm 1 mps 695 mmHg 65%
    23:00 +7°C° 0 mm 1 mps 695 mmHg 66%
    Show more